Waarnemingen

Advertentie
Mijn weer
Lakaträsk, Zweden (2174): temperatuur & dauwpunt: 13.06.2018 22:00:00 - 19.06.2018 22:00:00 (CEST)Lakaträsk, Zweden (2174): windsnelheid & windstoten: 13.06.2018 22:00:00 - 19.06.2018 22:00:00 (CEST)Lakaträsk, Zweden (2174): windrichting: 13.06.2018 22:00:00 - 19.06.2018 22:00:00 (CEST)Lakaträsk, Zweden (2174): luchtdruk: 13.06.2018 22:00:00 - 19.06.2018 22:00:00 (CEST)Lakaträsk, Zweden (2174): zicht: 13.06.2018 22:00:00 - 19.06.2018 22:00:00 (CEST)Lakaträsk, Zweden (2174): neerslag: 13.06.2018 22:00:00 - 19.06.2018 22:00:00 (CEST)
Datum & Tijd tt [°C] td [°C] ff [km/u] ff [kn] fx [km/u] fx [kn] dd ppp [hPa] vv [km] rr [mm]
19.06.2018 22:00:00 - - - - - - - - - -
19.06.2018 21:00:00 8,5 7,6 9 5 27 15 WNW 989,7 11 3,1
19.06.2018 20:00:00 10,3 9,8 4 2 10 6 ZO 989,0 4,5 3,5
19.06.2018 19:00:00 10,9 10,4 0 0 8 4 N 988,9 8 1,4
19.06.2018 18:00:00 11,2 10,4 3 2 14 7 ZZO 989,0 11 0,7
19.06.2018 17:00:00 11,4 10,3 7 4 18 10 ZO 989,0 12 0,6
19.06.2018 16:00:00 11,8 10,4 10 6 21 12 OZO 989,3 25 0,0
19.06.2018 15:00:00 11,9 10,3 10 5 23 12 OZO 989,8 40 0,1
19.06.2018 14:00:00 11,7 10,6 11 6 27 15 OZO 990,2 45 0,3
19.06.2018 13:00:00 11,0 10,4 11 6 27 14 O 990,8 6 0,1
19.06.2018 12:00:00 11,0 10,2 10 6 33 18 OZO 991,6 17 0,0
19.06.2018 11:00:00 11,5 10,1 12 6 29 16 OZO 992,4 10 0,0
19.06.2018 10:00:00 12,6 10,8 11 6 27 14 OZO 993,0 32 0,0
19.06.2018 09:00:00 12,0 11,1 12 6 24 13 OZO 994,0 23 0,0
19.06.2018 08:00:00 10,8 10,2 6 3 19 11 OZO 995,1 11 0,5
19.06.2018 07:00:00 10,6 10,1 5 3 15 8 O 996,0 14 0,4
19.06.2018 06:00:00 10,7 9,6 6 3 12 6 OZO 996,8 8 0,4
19.06.2018 05:00:00 10,9 9,3 4 2 14 8 ONO 997,7 50 0,0
19.06.2018 04:00:00 10,0 9,3 4 2 10 5 O 998,6 50 0,0
19.06.2018 03:00:00 5,6 5,3 0 0 9 5 N 999,7 45 0,0
19.06.2018 02:00:00 6,8 6,4 4 2 7 4 ZZO 1000,1 50 0,0
19.06.2018 01:00:00 - - - - - - - - - -
19.06.2018 00:00:00 7,9 7,5 3 2 9 5 Z 1000,6 50 0,0
18.06.2018 23:00:00 11,6 8,6 3 2 14 8 Z 1000,4 50 0,0
18.06.2018 22:00:00 12,6 9,1 5 3 16 8 ZZW 1000,0 50 0,0
18.06.2018 21:00:00 12,3 8,8 6 3 20 11 ZW 999,6 50 0,0
18.06.2018 20:00:00 12,5 9,3 6 3 22 12 ZW 999,3 50 0,0
18.06.2018 19:00:00 12,6 9,6 9 5 22 12 ZW 999,0 50 0,0
18.06.2018 18:00:00 12,0 11,1 7 4 28 15 ZZW 999,1 11 0,0
18.06.2018 17:00:00 13,2 11,1 9 5 22 12 Z 999,0 29 0,0
18.06.2018 16:00:00 13,0 10,9 10 5 23 12 Z 999,2 50 0,0
18.06.2018 15:00:00 12,5 11,7 8 5 29 16 ZO 999,3 42 0,9
18.06.2018 14:00:00 13,2 11,1 7 4 27 14 ZO 999,9 50 0,0
18.06.2018 13:00:00 13,9 12,6 11 6 22 12 ZO 1000,3 42 3,9
18.06.2018 12:00:00 13,2 11,6 8 5 26 14 OZO 1001,1 47 0,0
18.06.2018 11:00:00 12,5 12,0 9 5 21 11 OZO 1002,0 23 1,0
18.06.2018 10:00:00 12,3 11,5 7 4 21 11 ZO 1003,5 10 0,7
18.06.2018 09:00:00 10,9 10,4 8 4 19 10 O 1003,8 19 1,4
18.06.2018 08:00:00 10,7 9,6 5 3 25 13 O 1005,2 8 1,0
18.06.2018 07:00:00 13,9 5,5 10 6 26 14 OZO 1005,8 50 0,0
18.06.2018 06:00:00 13,6 4,7 8 4 19 10 ONO 1006,0 50 0,0
18.06.2018 05:00:00 13,2 4,4 8 4 18 10 ONO 1007,6 50 0,0
18.06.2018 04:00:00 12,8 4,0 8 4 15 8 O 1009,1 50 0,0
18.06.2018 03:00:00 11,8 4,0 6 4 13 7 O 1010,4 50 0,0
18.06.2018 02:00:00 10,2 4,8 4 2 9 5 O 1011,9 50 0,0
18.06.2018 01:00:00 7,8 5,6 3 2 7 4 NO 1012,9 50 0,0
18.06.2018 00:00:00 7,5 5,3 3 2 6 3 NO 1013,5 50 0,0
17.06.2018 23:00:00 8,7 5,1 5 3 7 4 ONO 1014,0 50 0,0
17.06.2018 22:00:00 12,5 6,3 3 2 10 5 OZO 1014,3 50 0,0
17.06.2018 21:00:00 16,9 2,9 6 4 18 10 ZO 1014,4 50 0,0
17.06.2018 20:00:00 17,9 3,4 7 4 22 12 ZZO 1014,6 50 0,0
17.06.2018 19:00:00 17,6 6,2 4 2 15 8 OZO 1014,9 50 0,0
17.06.2018 18:00:00 18,5 5,0 5 3 17 9 ZO 1015,2 50 0,0
17.06.2018 17:00:00 19,1 4,1 8 4 19 10 ZO 1015,3 47 0,0
17.06.2018 16:00:00 20,4 4,8 4 2 13 7 ZZW 1015,3 50 0,0
17.06.2018 15:00:00 19,0 2,8 5 3 17 9 Z 1015,9 50 0,0
17.06.2018 14:00:00 17,9 3,0 5 3 17 9 W 1016,5 50 0,0
17.06.2018 13:00:00 17,8 2,9 5 3 14 8 ZW 1016,9 50 0,0
17.06.2018 12:00:00 17,9 2,6 5 3 14 8 Z 1017,1 41 0,0
17.06.2018 11:00:00 16,9 2,1 7 4 14 8 ZZO 1017,4 45 0,0
17.06.2018 10:00:00 16,1 3,2 5 3 19 11 ZZW 1017,6 43 0,0
17.06.2018 09:00:00 14,8 2,7 7 4 23 12 ZZW 1017,8 47 0,0
17.06.2018 08:00:00 14,0 2,6 7 4 16 9 WZW 1018,0 50 0,0
17.06.2018 07:00:00 13,0 3,6 4 2 8 4 W 1018,1 50 0,0
17.06.2018 06:00:00 11,0 3,5 2 1 6 3 W 1018,1 47 0,0
17.06.2018 05:00:00 5,8 4,1 0 0 3 1 N 1018,0 50 0,0
17.06.2018 04:00:00 3,0 2,3 0 0 3 1 N 1017,9 50 0,0
17.06.2018 03:00:00 2,5 1,8 0 0 5 3 N 1017,4 50 0,0
17.06.2018 02:00:00 3,1 2,1 0 0 4 2 N 1017,1 50 0,0
17.06.2018 01:00:00 4,3 3,0 0 0 5 3 N 1016,8 50 0,0
17.06.2018 00:00:00 6,3 4,3 0 0 6 3 N 1016,0 50 0,0
16.06.2018 23:00:00 11,1 4,5 3 2 12 7 W 1014,9 50 0,0
16.06.2018 22:00:00 14,6 2,5 6 4 19 10 W 1014,0 50 0,0
16.06.2018 21:00:00 16,0 1,7 6 3 21 11 W 1013,1 50 0,0
16.06.2018 20:00:00 17,5 1,0 9 5 22 12 W 1012,6 50 0,0
16.06.2018 19:00:00 18,3 1,3 8 4 26 14 W 1011,9 50 0,0
16.06.2018 18:00:00 18,5 1,0 11 6 26 14 W 1011,6 48 0,0
16.06.2018 17:00:00 19,4 1,4 9 5 26 14 WZW 1011,4 44 0,0
16.06.2018 16:00:00 18,8 3,0 11 6 29 16 ZW 1011,1 43 0,0
16.06.2018 15:00:00 19,5 4,0 14 8 33 18 W 1010,6 38 0,0
16.06.2018 14:00:00 18,8 4,9 11 6 25 14 WZW 1010,7 50 0,0
16.06.2018 13:00:00 17,9 4,5 11 6 29 16 WZW 1010,6 42 0,0
16.06.2018 12:00:00 17,2 4,5 7 4 23 12 ZZW 1010,7 50 0,0
16.06.2018 11:00:00 17,7 5,3 8 4 22 12 ZZO 1010,5 43 0,0
16.06.2018 10:00:00 16,4 5,1 8 5 22 12 Z 1010,6 50 0,0
16.06.2018 09:00:00 15,3 6,3 8 4 18 10 ZZW 1010,6 50 0,0
16.06.2018 08:00:00 14,1 7,6 6 3 16 9 ZZW 1010,5 50 0,0
16.06.2018 07:00:00 12,0 7,1 5 3 11 6 Z 1010,5 50 0,0
16.06.2018 06:00:00 10,7 6,3 3 2 10 5 Z 1010,4 50 0,0
16.06.2018 05:00:00 8,9 6,9 4 2 9 5 Z 1010,1 50 0,0
16.06.2018 04:00:00 5,7 5,4 3 2 8 5 ZZO 1009,7 17 0,0
16.06.2018 03:00:00 7,6 6,5 6 3 12 6 ZO 1009,1 50 0,2
16.06.2018 02:00:00 7,2 6,8 6 3 14 7 WZW 1009,3 49 0,0
16.06.2018 01:00:00 7,6 6,9 5 3 13 7 Z 1007,7 50 0,0
16.06.2018 00:00:00 7,8 7,2 5 3 12 6 ZZO 1007,6 50 0,0
15.06.2018 23:00:00 8,1 7,5 2 1 10 6 ZZW 1006,7 50 0,0
15.06.2018 22:00:00 8,8 8,3 2 1 41 22 O 1005,4 49 6,7
15.06.2018 21:00:00 13,7 9,1 10 5 23 12 Z 1004,2 33 0,0
15.06.2018 20:00:00 15,0 7,3 7 4 16 8 ZZO 1003,1 50 0,0
15.06.2018 19:00:00 15,8 7,3 6 4 16 8 Z 1002,6 50 0,0
15.06.2018 18:00:00 15,9 6,3 5 3 18 10 Z 1002,0 50 0,0
15.06.2018 17:00:00 14,3 8,0 5 3 17 9 ZZW 1001,8 50 0,0
15.06.2018 16:00:00 15,0 8,7 5 3 22 12 ZZW 1000,9 50 0,0
15.06.2018 15:00:00 15,6 9,5 8 4 25 13 WZW 1000,0 42 0,0
15.06.2018 14:00:00 14,6 13,6 8 4 38 21 W 999,4 12 3,2
15.06.2018 13:00:00 16,8 11,1 14 8 36 19 ZZO 998,0 45 0,0
15.06.2018 12:00:00 15,9 11,3 17 9 39 21 ZO 998,1 35 0,0
15.06.2018 11:00:00 15,0 11,4 14 7 36 20 ZZO 998,2 44 0,0
15.06.2018 10:00:00 12,6 11,0 12 6 29 16 ZZO 998,5 36 0,0
15.06.2018 09:00:00 11,5 10,5 11 6 29 15 ZO 998,3 33 0,0
15.06.2018 08:00:00 11,2 10,3 10 5 25 14 ZZO 998,6 32 0,2
15.06.2018 07:00:00 11,3 10,4 13 7 29 15 ZZO 998,5 16 0,7
15.06.2018 06:00:00 11,2 9,6 11 6 25 13 ZO 998,7 26 0,1
15.06.2018 05:00:00 11,7 8,0 11 6 30 16 ZZO 998,6 50 0,0
15.06.2018 04:00:00 11,7 7,4 10 6 32 17 ZO 999,0 50 0,0
15.06.2018 03:00:00 12,0 6,9 13 7 28 15 ZO 999,1 50 0,0
15.06.2018 02:00:00 11,9 6,4 15 8 39 21 OZO 999,7 50 0,0
15.06.2018 01:00:00 11,6 6,5 11 6 36 20 ZZO 1000,5 50 0,0
15.06.2018 00:00:00 11,0 6,3 13 7 31 17 ZO 1001,4 50 0,0
14.06.2018 23:00:00 10,1 6,8 11 6 28 15 OZO 1002,4 50 0,0
14.06.2018 22:00:00 9,6 6,7 12 6 26 14 OZO 1003,4 50 0,0
14.06.2018 21:00:00 9,0 7,0 11 6 32 17 OZO 1004,1 50 0,5
14.06.2018 20:00:00 9,9 5,3 13 7 30 16 OZO 1004,7 18 0,1
14.06.2018 19:00:00 11,9 3,9 11 6 34 18 ZO 1005,4 43 0,0
14.06.2018 18:00:00 13,3 2,5 14 8 35 19 ZZO 1005,7 50 0,0
14.06.2018 17:00:00 14,0 1,6 12 7 36 19 ZO 1006,2 50 0,0
14.06.2018 16:00:00 14,1 0,7 16 8 35 19 ZZO 1006,5 50 0,0
14.06.2018 15:00:00 15,3 1,8 14 7 40 22 ZO 1007,0 50 0,0
14.06.2018 14:00:00 15,1 0,5 19 10 41 22 ZZO 1007,4 47 0,0
14.06.2018 13:00:00 14,9 2,1 14 8 41 22 ZO 1007,8 42 0,0
14.06.2018 12:00:00 13,7 1,7 18 10 38 21 Z 1008,4 50 0,0
14.06.2018 11:00:00 13,5 2,1 16 8 34 19 ZZO 1008,7 44 0,0
14.06.2018 10:00:00 12,6 2,2 11 6 29 16 ZZO 1009,1 44 0,0
14.06.2018 09:00:00 10,7 2,3 12 6 31 17 ZO 1009,7 50 0,0
14.06.2018 08:00:00 9,7 2,8 10 6 27 15 ZZO 1010,0 48 0,0
14.06.2018 07:00:00 8,9 2,9 10 5 22 12 ZO 1010,2 48 0,0
14.06.2018 06:00:00 8,0 3,1 8 4 18 10 OZO 1010,2 50 0,0
14.06.2018 05:00:00 7,0 3,6 3 2 10 5 OZO 1010,5 50 0,0
14.06.2018 04:00:00 4,8 3,0 5 3 13 7 OZO 1010,8 50 0,0
14.06.2018 03:00:00 3,8 2,8 3 1 9 5 OZO 1010,8 50 0,0
14.06.2018 02:00:00 3,4 2,4 0 0 9 5 N 1010,6 50 0,0
14.06.2018 01:00:00 6,6 4,1 4 2 13 7 OZO 1010,3 50 0,0
14.06.2018 00:00:00 8,0 4,2 6 3 13 7 ZO 1010,3 50 0,0
13.06.2018 23:00:00 8,6 4,6 6 3 13 7 ZZO 1010,1 50 0,0
13.06.2018 22:00:00 9,2 4,2 6 4 15 8 ZZO 1009,8 50 0,0

tt = temperatuur
td = dauwpunt
ff = windsnelheid
fx = windstoten
dd = windrichting
ppp = luchtdruk
vv = zicht
rr = neerslag

Weerstations in de omgeving